Home > Time Zones > World Clock > Weather > Egypt > Cairo > Past weeks

Flag for Egypt Weather past 2 weeks in Cairo, Egypt

Now
59 °F

Clear.


Feels Like: 60 °F
Forecast: 52 / 71 °F
Wind: 3 mph from Northeast

Location: Cairo Airport

Current Time: Dec 19, 2014 at 10:21:16 PM

Latest Report: Dec 19, 2014 at 10:00 PM


Visibility: 10 mi

Pressure: 30.12 "Hg

Humidity: 77%

Dew point: 52 °F

Location of CairoLocation

Historic Weather in Cairo — Graph

°F

Cairo temperature yesterday

Maximum temperature yesterday: 72 °F (at 2:00 PM)
Minimum temperature yesterday: 57 °F (at 6:30 AM)
Average temperature yesterday: 64 °F

Past Weeks' High & Low Weather Summary

 TemperatureHumidityPressure
High82 °F (Dec 5, 1:30 PM)100% (Dec 6, 1:30 AM)30.27 "Hg (Dec 6, 1:30 AM)
Low52 °F (Dec 17, 3:30 AM)14% (Dec 11, 4:00 PM)29.80 "Hg (Dec 9, 1:00 AM)
Average64 °F59%30.06 "Hg
* Reported Dec 4 9:00 PM — Dec 19 9:00 PM, Cairo, Weather by CustomWeather, © 2014

Note: Actual official high and low records may vary slightly from our data, if they occured in-between our weather recording intervals... More about our weather records

Advertising

Cairo weather history for previous 24 hours

 ConditionsComfort  
Time TempWeatherWind HumidityBarometerVisibility
9:00 PM
Dec 19
61 °FClear.3 mph72%30.12 "Hg10 mi
8:30 PM63 °FClear.7 mph73%30.12 "Hg10 mi
8:00 PM63 °FClear.6 mph73%30.12 "Hg10 mi
7:30 PM64 °FClear.7 mph64%30.12 "Hg10 mi
7:00 PM64 °FClear.7 mph64%30.09 "Hg10 mi
6:30 PM64 °FClear.6 mph64%30.09 "Hg10 mi
6:00 PM66 °FClear.8 mph60%30.09 "Hg10 mi
5:30 PM66 °FClear.9 mph60%30.09 "Hg10 mi
5:00 PM68 °FClear.8 mph53%30.07 "Hg10 mi
4:30 PM68 °FPassing clouds.8 mph53%30.07 "HgN/A
4:00 PM68 °FPassing clouds.8 mph56%30.07 "HgN/A
3:30 PM68 °FPassing clouds.8 mph56%30.07 "HgN/A
3:00 PM68 °FPassing clouds.9 mph56%30.07 "HgN/A
2:30 PM70 °FClear.7 mph50%30.07 "Hg4 mi
2:00 PM70 °FClear.8 mph43%30.07 "Hg4 mi
1:30 PM70 °FClear.10 mph40%30.07 "Hg4 mi
1:00 PM70 °FClear.8 mph38%30.07 "Hg4 mi
12:30 PM70 °FClear.7 mph38%30.07 "Hg4 mi
12:00 PM68 °FClear.5 mph38%30.09 "Hg4 mi
11:30 AM68 °FHaze.3 mph40%30.09 "Hg2 mi
11:00 AM66 °FHaze.2 mph43%30.12 "Hg2 mi
10:30 AM66 °FHaze.No wind43%30.12 "Hg2 mi
10:00 AM68 °FHaze.No wind43%30.12 "Hg2 mi
9:30 AM66 °FHaze.No wind46%30.12 "Hg2 mi
9:00 AM70 °FHaze.No wind40%30.12 "Hg2 mi
8:30 AM64 °FHaze.No wind49%30.12 "Hg2 mi
8:00 AM61 °FHaze.No wind52%30.09 "Hg2 mi
7:30 AM61 °FHaze.No wind52%30.09 "Hg2 mi
7:00 AM59 °FHaze.No wind55%30.09 "Hg2 mi
6:30 AM57 °FHaze.No wind59%30.09 "Hg2 mi
6:00 AM57 °FHaze.No wind59%30.09 "Hg2 mi
5:30 AM57 °FHaze.No wind55%30.09 "Hg2 mi
5:00 AM57 °FHaze.No wind59%30.09 "Hg2 mi
4:30 AM57 °FHaze.No wind59%30.07 "Hg2 mi
4:00 AM59 °FHaze.No wind55%30.09 "Hg2 mi
3:30 AM59 °FHaze.No wind55%30.09 "Hg2 mi
3:00 AM59 °FHaze.No wind55%30.09 "Hg2 mi
2:30 AM59 °FHaze.No wind55%30.09 "Hg2 mi
2:00 AM61 °FHaze.No wind48%30.09 "Hg2 mi
1:30 AM59 °FHaze.No wind51%30.09 "Hg2 mi
1:00 AM59 °FHaze.No wind51%30.09 "Hg2 mi
12:30 AM61 °FHaze.No wind48%30.09 "Hg2 mi
12:00 AM61 °FHaze.No wind48%30.09 "Hg2 mi
11:30 PM
Dec 18
63 °FHaze.No wind49%30.09 "Hg2 mi
10:30 PM63 °FHaze.No wind45%30.09 "Hg2 mi
10:00 PM63 °FHaze.No wind45%30.09 "Hg2 mi
Weather by CustomWeather, © 2014

See weather overviewHow to use our weather pages